SCP
-0 -0 -0 -0 -0 -0 -0 -0 -0 -0 -0 -0 -0 -0 -0 -0 -0 -0 -0 -0 -0 -0 -0 -0 -0 -0 -0 -0 -0 -0 -0 -0 -0 -0 -0 -0 -0 -0 -0 -0 -0 -0 -0
0 -0 -0 -0 -0 -0 -0 -0 -0 -0 -0 -0 -0 -0 -0 -0 -0 -0 -0 -0 -0 -0 -0 -0 -0 -0 -0 -0 -0 -0 -0 -0 -0 -0 -0 -0 -0 -0 -0 -0 -0 -0 -0
0 0 0 0 0 -0 -0 -0 -0 -0 -0 -0 -0 -0 -0 -0 -0 -0 -0 -0 -0 -0 -0 -0 -0 -0 -0 -0 -0 -0 -0 -0 -0 -0 -0 0 -0 -0 -0 -0 -0 -0 -0
0 0 0 0 0 0 0 0 -0 -0 -0 -0 -0 -0 -0 -0 -0 -0 -0 -0 -0 -0 -0 -0 -0 -0 -0 -0 -0 -0 -0 -0 -0 -0 -0 0 0 -0 -0 -0 -0 -0 -0
0 0 0 0 0 0 0 0 0 0 -0 -0 -0 -0 -0 -0 -0 -0 -0 -0 -0 -0 -0 -0 -0 -0 -0 -0 -0 -0 -0 -0 -0 -0 -0 0 0 -0 -0 -0 -0 -0 -0
0 0 0 0 0 0 0 0 0 0 0 0 0 0 -0 -0 -0 -0 -0 -0 -0 -0 -0 -0 -0 -0 -0 -0 -0 -0 -0 -0 -0 -0 0 0 0 0 -0 -0 -0 -0 0
0 0 0 0 0 0 0 0 0 0 0 0 0 0 -0 -0 -0 -0 -0 -0 -0 -0 -0 -0 -0 -0 -0 -0 -0 -0 -0 -0 0 0 0 0 0 0 0 0 0 0 0
0 0 0 0 0 0 0 0 0 0 -0 -0 -0 -0 -0 -0 -0 -0 -0 -0 -0 -0 -0 -0 -0 -0 -0 -0 -0 -0 -0 -0 0 0 0 0 0 0 0 0 0 0 0
0 0 0 0 0 0 0 0 0 0 -0 -0 -0 -0 -0 -0 -0 -0 -0 -0 -0 -0 -0 -0 0 -0 -0 -0 -0 -0 0 0 0 0 0 0 0 0 0 0 0 0 0
0 0 0 0 0 0 0 0 0 0 0 -0 -0 -0 -0 -0 -0 -0 -0 -0 -0 -0 -0 0 0 0 0 0 0 0 0 0 0 0 0 0 0 0 0 0 0 0 0
0 0 0 0 0 0 0 0 0 0 0 -0 -0 0 0 0 0 0 0 -0 -0 -0 -0 0 0 0 0 0 0 0 0 0 0 0 0 0 0 0 0 0 0 0 0
-0 -0 -0 0 0 0 0 0 0 0 0 0 0 0 0 0 0 0 0 -0 -0 0 0 0 0 0 0 0 0 0 0 0 0 0 0 0 0 0 0 0 0 0 0
-0 -0 -0 -0 -0 -0 0 0 0 0 0 0 0 0 0 0 0 0 0 0 0 0 0 0 0 0 0 0 0 0 0 0 0 0 0 0 0 0 0 0 0 0 0
-0 -0 -0 -0 -0 -0 -0 -0 -0 -0 0 0 0 0 0 0 0 0 0 0 0 0 0 0 0 0 0 0 0 0 0 0 0 0 0 0 0 0 0 0 0 0 0
-0 -0 -0 -0 -0 -0 -0 -0 -0 -0 -0 -0 -0 0 0 0 0 0 0 0 0 0 0 0 0 0 0 0 0 0 0 0 0 0 0 0 0 0 0 0 0 0 0
-0 -0 -0 -0 -0 -0 -0 -0 -0 -0 -0 -0 -0 -0 -0 0 0 0 0 0 0 0 0 0 0 0 0 0 0 0 0 0 0 0 0 0 0 0 0 0 0 0 0
0 -0 -0 -0 -0 -0 -0 -0 0 0 0 0 0 -0 0 0 0 0 0 0 0 0 0 0 0 0 0 0 0 0 0 0 0 0 0 0 0 0 0 0 0 0 0
0 0 -0 0 0 0 -0 0 0 0 0 0 0 0 0 0 0 0 0 0 0 0 0 0 0 0 0 0 0 0 0 0 0 0 0 0 0 0 0 0 0 0 0
0 0 0 0 0 0 0 0 0 0 0 0 0 0 0 0 0 0 0 0 0 0 0 0 0 0 0 0 0 0 0 0 0 0 0 0 0 0 0 0 0 0 0
0 0 0 0 0 0 0 0 0 0 0 0 0 0 0 0 0 0 0 0 0 0 0 0 0 0 0 0 0 0 0 0 0 0 0 0 0 0 0 0 0 0 0
0 0 0 0 0 0 0 0 0 0 0 0 0 0 0 0 0 0 0 0 0 0 0 0 0 0 0 0 0 0 0 0 0 0 0 0 0 0 0 0 0 0 0
0 0 0 0 0 0 0 0 0 0 0 0 0 0 0 0 0 0 0 0 0 0 0 0 0 0 0 0 0 0 0 0 0 0 0 0 0 0 0 0 0 0 0
0 0 0 0 0 0 0 0 0 0 0 0 0 0 0 0 0 0 0 0 0 0 0 0 0 0 0 0 0 0 0 0 0 0 0 0 0 0 0 0 0 0 0
0 0 0 0 0 0 0 0 0 0 0 0 0 0 0 0 0 0 0 0 0 0 0 0 0 0 0 0 0 0 0 0 0 0 0 0 0 0 0 0 0 0 0
0 0 0 0 0 0 0 0 0 0 0 0 0 0 0 0 0 0 0 0 0 0 0 0 0 0 0 0 0 0 0 0 0 0 0 0 0 0 0 0 0 0 0
0 0 0 0 0 0 0 0 0 0 0 0 0 0 0 0 0 0 0 0 0 0 0 0 0 0 0 0 0 0 0 0 0 0 0 0 0 0 0 0 0 0 0
Wind_Speed_500mb
30 25 19 20 20 23 26 26 25 24 25 25 24 22 26 25 21 18 16 15 21 21 28 28 33 35 38 39 40 41 42 39 36 36 35 35 34 34 31 27 29 30 30
37 28 22 21 22 26 29 23 24 26 27 28 29 28 27 26 23 22 22 20 28 29 28 29 34 36 37 38 39 38 37 34 25 25 27 26 24 21 21 19 21 22 21
39 26 24 22 25 29 29 26 23 28 30 30 32 32 36 31 30 29 29 33 32 32 30 30 33 33 35 36 31 31 31 26 16 23 22 24 25 15 14 13 11 11 13
38 28 26 25 26 29 29 26 25 31 35 33 34 33 34 31 29 32 35 33 31 29 28 28 28 29 29 30 26 26 27 23 18 20 29 28 26 23 19 20 23 23 20
36 30 26 25 26 28 27 26 29 30 33 34 35 34 31 28 30 32 31 31 30 28 27 25 24 25 25 26 24 21 17 13 13 18 22 21 28 23 15 14 17 18 17
36 32 27 26 26 26 26 27 29 28 31 32 33 33 30 27 27 28 28 27 27 26 26 26 26 27 27 28 27 24 22 26 18 15 17 18 22 19 16 12 9 10 13
37 32 28 26 26 26 25 26 29 26 28 26 27 28 28 26 24 23 24 25 23 23 25 26 27 28 28 28 26 23 23 16 12 15 19 19 20 15 10 12 14 12 7
35 33 30 29 27 26 25 25 26 26 21 20 22 24 25 24 22 22 21 23 21 21 23 25 27 28 29 27 20 19 23 13 8 12 17 22 25 20 14 9 10 10 11
29 34 31 29 27 26 24 23 23 23 21 18 17 19 20 20 20 16 16 19 19 20 20 23 25 26 25 24 20 17 22 16 13 14 17 22 20 19 14 11 8 9 9
32 32 31 29 27 25 24 22 20 19 17 16 14 13 14 15 15 13 12 13 14 16 18 20 23 22 21 20 21 16 13 14 12 12 16 17 15 10 10 6 8 11 7
30 34 33 31 29 26 23 22 20 18 15 13 11 10 7 9 12 10 9 10 9 11 13 15 17 16 16 16 18 12 12 8 9 17 18 15 19 19 16 13 12 10 12
36 36 35 35 31 28 25 21 18 16 13 11 9 8 3 8 10 9 8 5 6 7 9 10 11 9 10 15 13 7 7 1 9 15 19 18 19 21 20 16 14 14 12
35 33 32 33 37 33 28 26 22 19 16 13 9 9 3 2 5 6 7 3 2 3 6 6 5 3 5 8 8 4 8 2 9 13 15 16 17 18 21 19 15 14 13
41 35 33 29 36 32 31 28 26 23 20 17 14 15 10 3 1 1 4 2 2 3 4 5 1 1 2 3 3 3 5 1 7 10 13 14 13 16 17 17 18 14 14
46 40 39 37 34 38 34 30 31 28 25 20 18 18 14 9 9 7 4 1 2 3 4 4 5 3 3 3 2 3 3 2 8 12 15 15 18 16 17 18 18 17 17
46 45 40 41 37 36 42 37 32 28 23 23 23 22 19 18 16 13 10 7 5 5 5 6 6 6 7 6 6 5 4 7 11 15 18 22 24 23 22 23 23 23 23
48 43 50 46 41 38 44 44 40 35 34 32 28 26 26 27 24 20 18 15 13 10 10 10 10 11 11 10 10 10 12 15 17 21 26 26 30 34 34 32 32 32 30
46 45 41 44 41 39 40 45 45 44 42 37 36 34 30 29 31 28 25 22 21 19 17 16 14 13 14 14 16 19 21 24 26 29 32 37 39 40 41 43 42 39 38
41 44 42 45 41 36 38 36 43 44 46 46 46 43 37 33 33 36 33 29 28 27 25 24 23 21 21 22 24 27 31 36 38 40 42 43 45 49 49 49 48 48 47
41 43 40 43 44 39 40 42 41 45 47 46 47 47 46 41 33 34 36 35 35 34 31 31 31 30 30 31 37 40 47 50 51 53 54 54 52 50 52 51 52 51 48
39 42 43 45 47 46 47 49 48 50 49 49 48 45 44 44 44 40 36 36 39 39 35 34 35 38 39 43 46 49 54 57 60 58 53 51 54 48 44 41 42 46 46
49 46 46 47 48 49 48 44 45 49 50 48 48 48 48 45 40 39 41 41 41 40 39 35 33 38 42 44 47 56 49 56 54 49 44 48 45 48 46 45 45 45 50
52 56 56 55 53 55 51 47 42 39 45 47 50 49 51 48 45 45 45 46 46 45 42 41 39 40 45 45 44 49 28 19 51 59 50 51 47 50 49 48 52 55 56
45 47 54 61 62 60 53 54 53 52 46 45 46 46 46 47 47 46 44 45 46 46 46 43 42 42 45 44 48 51 47 44 48 36 56 53 51 53 53 54 55 54 57
39 42 46 49 57 66 64 56 49 50 42 36 37 39 38 40 40 42 42 44 46 44 45 44 42 42 42 43 45 46 48 52 46 49 60 67 69 66 55 56 60 61 61
35 35 36 37 39 49 69 66 56 42 37 33 34 34 32 29 30 29 29 33 38 38 38 39 35 40 39 46 42 39 45 45 47 48 55 69 70 75 72 64 67 67 62
Wind_Direction_500mb
162 154 143 127 116 113 111 95 79 77 83 84 92 90 93 89 103 126 139 111 94 84 96 101 100 93 90 91 90 89 87 83 82 83 84 82 80 81 83 79 80 79 75
157 157 137 125 122 116 110 107 81 83 86 90 93 91 88 88 83 87 107 113 97 102 107 107 102 98 97 92 92 90 85 77 72 82 81 84 76 80 77 79 77 79 81
158 153 137 129 123 117 113 105 89 93 91 87 89 90 91 93 79 88 94 97 98 101 102 105 108 103 98 94 92 90 82 79 72 74 80 76 67 61 65 66 67 94 86
159 150 137 130 126 123 118 110 96 95 94 88 91 93 94 92 83 88 89 93 100 104 103 107 112 107 105 105 98 90 90 81 68 68 79 71 68 71 75 71 67 73 70
153 145 137 130 127 126 128 118 104 100 91 87 85 89 93 91 84 89 88 91 93 99 104 107 107 109 113 113 111 93 88 86 82 73 74 73 73 57 50 61 63 69 76
149 145 139 131 128 126 121 118 113 105 98 85 83 83 84 85 81 87 91 89 92 97 100 102 104 107 111 119 116 102 85 76 73 73 73 64 55 45 35 37 58 44 53
148 149 142 136 133 129 124 120 122 117 101 94 90 88 87 86 84 84 97 86 86 93 99 101 102 106 112 117 120 114 94 86 62 62 55 52 38 44 37 31 44 17 56
155 158 152 145 140 135 131 126 127 124 121 106 97 91 88 86 86 85 90 89 87 89 96 100 105 108 114 119 117 102 92 73 38 29 46 33 53 50 43 45 44 26 33
165 167 163 156 150 144 138 133 132 135 130 120 104 92 86 81 80 81 74 80 88 88 94 103 109 114 116 120 117 105 93 65 46 19 46 47 51 43 48 35 37 352 332
170 179 174 167 161 157 150 146 144 145 140 126 116 98 87 86 81 81 72 72 89 97 102 107 113 116 117 124 126 112 94 76 35 16 38 45 44 29 24 2 336 348 4
181 181 185 180 174 170 167 163 158 154 152 147 138 118 95 96 81 70 64 81 91 100 106 112 117 120 121 128 144 149 99 71 16 27 32 41 36 35 25 32 21 29 17
192 187 191 191 187 183 182 179 173 171 170 170 161 151 150 110 79 50 36 64 98 117 125 126 124 121 128 140 156 155 137 92 14 30 32 34 36 35 36 43 39 30 25
205 200 199 207 198 195 195 192 190 191 193 190 185 197 230 96 66 26 17 28 141 153 153 147 138 86 122 131 154 149 136 6 26 25 25 28 25 28 31 35 25 14 11
210 214 213 217 202 206 198 201 202 204 208 206 200 213 220 220 313 316 6 22 200 201 201 187 204 177 95 86 94 103 151 216 353 1 4 1 3 11 20 27 23 10 355
212 218 216 221 226 207 212 212 208 209 213 219 216 227 228 229 243 240 270 279 273 257 220 218 247 230 200 195 179 132 115 323 320 332 330 337 341 340 348 353 356 353 352
208 219 223 226 229 224 215 213 214 216 225 226 224 230 238 240 239 250 254 262 274 279 255 252 245 239 241 233 221 222 262 299 298 300 311 318 323 327 326 326 325 326 326
217 223 225 228 234 237 225 222 218 220 216 219 227 235 229 237 240 242 247 249 252 258 253 253 253 251 250 248 242 262 281 291 295 296 301 304 308 312 315 316 311 310 309
215 220 225 228 234 233 231 224 226 226 222 224 224 230 234 234 238 243 247 248 248 249 250 251 256 256 256 257 265 274 286 292 292 293 293 300 302 302 303 304 304 302 302
216 220 224 230 234 235 240 228 226 228 229 230 229 231 236 231 235 239 245 247 249 250 249 250 251 257 264 272 281 286 286 285 285 288 293 295 297 298 298 296 294 293 297
220 221 227 228 237 240 245 249 228 229 229 231 233 233 234 235 235 237 241 245 251 253 252 252 254 257 267 273 279 283 287 286 288 291 293 294 292 291 292 292 292 291 293
215 220 225 231 234 235 237 242 229 230 231 232 235 234 237 236 240 245 246 246 246 254 260 259 257 261 267 272 284 284 287 289 295 297 296 297 292 294 293 291 286 287 291
213 213 221 232 241 245 247 248 251 234 236 238 239 237 237 236 237 243 249 256 260 262 267 278 273 266 271 275 277 280 295 293 309 297 308 300 296 297 285 298 291 290 294
214 216 220 223 233 244 249 252 251 250 233 236 238 238 240 242 243 243 248 253 256 261 264 266 269 278 276 285 283 284 279 287 302 300 306 303 294 299 295 297 292 291 295
222 224 225 223 225 233 238 244 250 254 256 249 242 244 246 249 249 250 247 249 252 256 263 265 273 271 281 283 285 294 291 293 292 289 305 304 303 303 304 300 297 295 292
233 238 235 232 225 224 234 237 240 249 258 260 246 245 246 247 250 251 250 248 249 251 255 262 267 278 276 286 290 296 292 298 297 286 289 303 302 302 299 297 297 295 294
239 235 233 231 228 220 224 234 238 239 236 236 236 244 246 250 252 255 251 248 246 246 252 258 265 271 274 279 276 285 292 294 294 299 300 301 298 301 304 303 302 307 305
Wind_Speed_850mb
30 25 19 20 20 23 26 26 25 24 25 25 24 22 26 25 21 18 16 15 21 21 28 28 33 35 38 39 40 41 42 39 36 36 35 35 34 34 31 27 29 30 30
37 28 22 21 22 26 29 23 24 26 27 28 29 28 27 26 23 22 22 20 28 29 28 29 34 36 37 38 39 38 37 34 25 25 27 26 24 21 21 19 21 22 21
39 26 24 22 25 29 29 26 23 28 30 30 32 32 36 31 30 29 29 33 32 32 30 30 33 33 35 36 31 31 31 26 16 23 22 24 25 15 14 13 11 11 13
38 28 26 25 26 29 29 26 25 31 35 33 34 33 34 31 29 32 35 33 31 29 28 28 28 29 29 30 26 26 27 23 18 20 29 28 26 23 19 20 23 23 20
36 30 26 25 26 28 27 26 29 30 33 34 35 34 31 28 30 32 31 31 30 28 27 25 24 25 25 26 24 21 17 13 13 18 22 21 28 23 15 14 17 18 17
36 32 27 26 26 26 26 27 29 28 31 32 33 33 30 27 27 28 28 27 27 26 26 26 26 27 27 28 27 24 22 26 18 15 17 18 22 19 16 12 9 10 13
37 32 28 26 26 26 25 26 29 26 28 26 27 28 28 26 24 23 24 25 23 23 25 26 27 28 28 28 26 23 23 16 12 15 19 19 20 15 10 12 14 12 7
35 33 30 29 27 26 25 25 26 26 21 20 22 24 25 24 22 22 21 23 21 21 23 25 27 28 29 27 20 19 23 13 8 12 17 22 25 20 14 9 10 10 11
29 34 31 29 27 26 24 23 23 23 21 18 17 19 20 20 20 16 16 19 19 20 20 23 25 26 25 24 20 17 22 16 13 14 17 22 20 19 14 11 8 9 9
32 32 31 29 27 25 24 22 20 19 17 16 14 13 14 15 15 13 12 13 14 16 18 20 23 22 21 20 21 16 13 14 12 12 16 17 15 10 10 6 8 11 7
30 34 33 31 29 26 23 22 20 18 15 13 11 10 7 9 12 10 9 10 9 11 13 15 17 16 16 16 18 12 12 8 9 17 18 15 19 19 16 13 12 10 12
36 36 35 35 31 28 25 21 18 16 13 11 9 8 3 8 10 9 8 5 6 7 9 10 11 9 10 15 13 7 7 1 9 15 19 18 19 21 20 16 14 14 12
35 33 32 33 37 33 28 26 22 19 16 13 9 9 3 2 5 6 7 3 2 3 6 6 5 3 5 8 8 4 8 2 9 13 15 16 17 18 21 19 15 14 13
41 35 33 29 36 32 31 28 26 23 20 17 14 15 10 3 1 1 4 2 2 3 4 5 1 1 2 3 3 3 5 1 7 10 13 14 13 16 17 17 18 14 14
46 40 39 37 34 38 34 30 31 28 25 20 18 18 14 9 9 7 4 1 2 3 4 4 5 3 3 3 2 3 3 2 8 12 15 15 18 16 17 18 18 17 17
46 45 40 41 37 36 42 37 32 28 23 23 23 22 19 18 16 13 10 7 5 5 5 6 6 6 7 6 6 5 4 7 11 15 18 22 24 23 22 23 23 23 23
48 43 50 46 41 38 44 44 40 35 34 32 28 26 26 27 24 20 18 15 13 10 10 10 10 11 11 10 10 10 12 15 17 21 26 26 30 34 34 32 32 32 30
46 45 41 44 41 39 40 45 45 44 42 37 36 34 30 29 31 28 25 22 21 19 17 16 14 13 14 14 16 19 21 24 26 29 32 37 39 40 41 43 42 39 38
41 44 42 45 41 36 38 36 43 44 46 46 46 43 37 33 33 36 33 29 28 27 25 24 23 21 21 22 24 27 31 36 38 40 42 43 45 49 49 49 48 48 47
41 43 40 43 44 39 40 42 41 45 47 46 47 47 46 41 33 34 36 35 35 34 31 31 31 30 30 31 37 40 47 50 51 53 54 54 52 50 52 51 52 51 48
39 42 43 45 47 46 47 49 48 50 49 49 48 45 44 44 44 40 36 36 39 39 35 34 35 38 39 43 46 49 54 57 60 58 53 51 54 48 44 41 42 46 46
49 46 46 47 48 49 48 44 45 49 50 48 48 48 48 45 40 39 41 41 41 40 39 35 33 38 42 44 47 56 49 56 54 49 44 48 45 48 46 45 45 45 50
52 56 56 55 53 55 51 47 42 39 45 47 50 49 51 48 45 45 45 46 46 45 42 41 39 40 45 45 44 49 28 19 51 59 50 51 47 50 49 48 52 55 56
45 47 54 61 62 60 53 54 53 52 46 45 46 46 46 47 47 46 44 45 46 46 46 43 42 42 45 44 48 51 47 44 48 36 56 53 51 53 53 54 55 54 57
39 42 46 49 57 66 64 56 49 50 42 36 37 39 38 40 40 42 42 44 46 44 45 44 42 42 42 43 45 46 48 52 46 49 60 67 69 66 55 56 60 61 61
35 35 36 37 39 49 69 66 56 42 37 33 34 34 32 29 30 29 29 33 38 38 38 39 35 40 39 46 42 39 45 45 47 48 55 69 70 75 72 64 67 67 62
Wind_Direction_850mb
162 154 143 127 116 113 111 95 79 77 83 84 92 90 93 89 103 126 139 111 94 84 96 101 100 93 90 91 90 89 87 83 82 83 84 82 80 81 83 79 80 79 75
157 157 137 125 122 116 110 107 81 83 86 90 93 91 88 88 83 87 107 113 97 102 107 107 102 98 97 92 92 90 85 77 72 82 81 84 76 80 77 79 77 79 81
158 153 137 129 123 117 113 105 89 93 91 87 89 90 91 93 79 88 94 97 98 101 102 105 108 103 98 94 92 90 82 79 72 74 80 76 67 61 65 66 67 94 86
159 150 137 130 126 123 118 110 96 95 94 88 91 93 94 92 83 88 89 93 100 104 103 107 112 107 105 105 98 90 90 81 68 68 79 71 68 71 75 71 67 73 70
153 145 137 130 127 126 128 118 104 100 91 87 85 89 93 91 84 89 88 91 93 99 104 107 107 109 113 113 111 93 88 86 82 73 74 73 73 57 50 61 63 69 76
149 145 139 131 128 126 121 118 113 105 98 85 83 83 84 85 81 87 91 89 92 97 100 102 104 107 111 119 116 102 85 76 73 73 73 64 55 45 35 37 58 44 53
148 149 142 136 133 129 124 120 122 117 101 94 90 88 87 86 84 84 97 86 86 93 99 101 102 106 112 117 120 114 94 86 62 62 55 52 38 44 37 31 44 17 56
155 158 152 145 140 135 131 126 127 124 121 106 97 91 88 86 86 85 90 89 87 89 96 100 105 108 114 119 117 102 92 73 38 29 46 33 53 50 43 45 44 26 33
165 167 163 156 150 144 138 133 132 135 130 120 104 92 86 81 80 81 74 80 88 88 94 103 109 114 116 120 117 105 93 65 46 19 46 47 51 43 48 35 37 352 332
170 179 174 167 161 157 150 146 144 145 140 126 116 98 87 86 81 81 72 72 89 97 102 107 113 116 117 124 126 112 94 76 35 16 38 45 44 29 24 2 336 348 4
181 181 185 180 174 170 167 163 158 154 152 147 138 118 95 96 81 70 64 81 91 100 106 112 117 120 121 128 144 149 99 71 16 27 32 41 36 35 25 32 21 29 17
192 187 191 191 187 183 182 179 173 171 170 170 161 151 150 110 79 50 36 64 98 117 125 126 124 121 128 140 156 155 137 92 14 30 32 34 36 35 36 43 39 30 25
205 200 199 207 198 195 195 192 190 191 193 190 185 197 230 96 66 26 17 28 141 153 153 147 138 86 122 131 154 149 136 6 26 25 25 28 25 28 31 35 25 14 11
210 214 213 217 202 206 198 201 202 204 208 206 200 213 220 220 313 316 6 22 200 201 201 187 204 177 95 86 94 103 151 216 353 1 4 1 3 11 20 27 23 10 355
212 218 216 221 226 207 212 212 208 209 213 219 216 227 228 229 243 240 270 279 273 257 220 218 247 230 200 195 179 132 115 323 320 332 330 337 341 340 348 353 356 353 352
208 219 223 226 229 224 215 213 214 216 225 226 224 230 238 240 239 250 254 262 274 279 255 252 245 239 241 233 221 222 262 299 298 300 311 318 323 327 326 326 325 326 326
217 223 225 228 234 237 225 222 218 220 216 219 227 235 229 237 240 242 247 249 252 258 253 253 253 251 250 248 242 262 281 291 295 296 301 304 308 312 315 316 311 310 309
215 220 225 228 234 233 231 224 226 226 222 224 224 230 234 234 238 243 247 248 248 249 250 251 256 256 256 257 265 274 286 292 292 293 293 300 302 302 303 304 304 302 302
216 220 224 230 234 235 240 228 226 228 229 230 229 231 236 231 235 239 245 247 249 250 249 250 251 257 264 272 281 286 286 285 285 288 293 295 297 298 298 296 294 293 297
220 221 227 228 237 240 245 249 228 229 229 231 233 233 234 235 235 237 241 245 251 253 252 252 254 257 267 273 279 283 287 286 288 291 293 294 292 291 292 292 292 291 293
215 220 225 231 234 235 237 242 229 230 231 232 235 234 237 236 240 245 246 246 246 254 260 259 257 261 267 272 284 284 287 289 295 297 296 297 292 294 293 291 286 287 291
213 213 221 232 241 245 247 248 251 234 236 238 239 237 237 236 237 243 249 256 260 262 267 278 273 266 271 275 277 280 295 293 309 297 308 300 296 297 285 298 291 290 294
214 216 220 223 233 244 249 252 251 250 233 236 238 238 240 242 243 243 248 253 256 261 264 266 269 278 276 285 283 284 279 287 302 300 306 303 294 299 295 297 292 291 295
222 224 225 223 225 233 238 244 250 254 256 249 242 244 246 249 249 250 247 249 252 256 263 265 273 271 281 283 285 294 291 293 292 289 305 304 303 303 304 300 297 295 292
233 238 235 232 225 224 234 237 240 249 258 260 246 245 246 247 250 251 250 248 249 251 255 262 267 278 276 286 290 296 292 298 297 286 289 303 302 302 299 297 297 295 294
239 235 233 231 228 220 224 234 238 239 236 236 236 244 246 250 252 255 251 248 246 246 252 258 265 271 274 279 276 285 292 294 294 299 300 301 298 301 304 303 302 307 305